Weather in Dryden

Canada     49°47′14″N   92°50′54″W
temp.,
°C
wind,
m/s
gust,
m/s
humid.,
%
clouds,
%
prec.,
mm/h
press.,
hPa
HPBL,
m
1 december, wed
wed101:00−7sse2892100 0.2 1012271
04:00−6se41295100 0.8 1009504
07:00−4sse41295100 1.5 1004518
10:00−2s31096100 0.3 1001462
13:000ssw4998100 0.3 997523
16:000s31099100 1.7 991489
19:00+2w71798100 2.1 9901227
22:000wnw51298100 0.6 993862
2 december, thu
thu201:00−1nw5994100 0.9 998615
04:00−3nw4896100 0.5 1003597
07:00−4nnw3796100 1.4 1007618
10:00−6n3692100 0.3 1011593
13:00−6nnw3481100 0.4 1014825
16:00−6nw2486100 0.1 1016606
19:00−10n119793 0.1 101810
22:00−11se009897 0.0 101910
3 december, fri
fri301:00−13se119974 0.0 102010
04:00−11s119899 0.0 102031
07:00−10s2597100 0.0 1018112
10:00−6ssw31094100 0.0 1016319
13:00−2wsw51095100 0.6 1014911
16:00−4w61281100 0.4 10151314
19:00−7wnw61386100 0.4 1017785
22:00−8wnw51190100 0.1 1019830
4 december, sat
sat401:00−10wnw51190100 0.1 1022748
04:00−11wnw41091100 0.1 1024675
07:00−13w389598 0.1 1025420
10:00−12w279397 0.0 1025373
13:00−9wsw2381100 0.0 1023471
16:00−8s1283100 0.0 1021360
19:00−8se2594100 0.2 1019280
22:00−8ese3995100 1.5 1016357
5 december, sun
sun501:00−7ese51395100 4.0 1011707
04:00−7e51295100 3.0 1007882
07:00−8ne51194100 5.8 1005619
10:00−8ne51294100 2.0 1005647
13:00−8nne61293100 3.4 1006777
16:00−8n61292100 1.1 1009822
19:00−10nnw41092100 1.4 1012691
22:00−13nw379598 0.1 1014260